Regional Weather Roundup
Issued by NWS

Home | Current Version | Previous Version | Graphics & Text | Print | Product List | Glossary On
Versions: 1 2 3 4 5 6 7 8 9 10 11 12 13 14 15 16 17 18 19 20 21 22 23 24 25 26 27 28 29 30 31 32 33 34 35 36 37 38 39 40 41 42 43 44 45 46 47 48 49 50
000
ASUS43 KOAX 212210
RWRNE

WEATHER ROUNDUP FOR NEBRASKA
NATIONAL WEATHER SERVICE OMAHA NE
500 PM CDT SAT APR 21 2018

NOTES: SATELLITE DATA IS BEING USED TO AUGMENT CLOUD COVER ABOVE
       12000 FEET.
       "FAIR" INDICATES FEW OR NO CLOUDS BELOW 12,000 FEET WITH NO
       SIGNIFICANT WEATHER AND/OR OBSTRUCTIONS TO VISIBILITY.


NEZ001>004-019>022-054>056-212300-
NEBRASKA PANHANDLE

CITY           SKY/WX    TMP DP  RH WIND       PRES   REMARKS
SCOTTSBLUFF    CLOUDY    44  39  82 SE10      30.19S
ALLIANCE       CLOUDY    41  37  86 S6        30.19F
CHADRON        CLOUDY    47  38  71 S10       30.18F
GORDON         CLOUDY    43  37  80 S5        30.20S
KIMBALL        DRIZZLE   42  35  76 E3        30.18S
SIDNEY         CLOUDY    41  33  73 CALM      30.20F
$$

NEZ057>060-069>072-079>082-212300-
SOUTHWEST NEBRASKA

CITY           SKY/WX    TMP DP  RH WIND       PRES   REMARKS
NORTH PLATTE   CLOUDY    46  37  71 E7        30.21F
IMPERIAL       CLOUDY    42  39  89 NE5       30.21S
LEXINGTON      CLOUDY    46  38  76 NE10      30.21S
MCCOOK         CLOUDY    45  39  79 NE7       30.20R
OGALLALA       CLOUDY    43  38  84 CALM      30.21F
$$

NEZ005>010-023>029-035>040-094-212300-
NORTH CENTRAL NEBRASKA

CITY           SKY/WX    TMP DP  RH WIND       PRES   REMARKS
VALENTINE      CLOUDY    49  36  61 SE12      30.24S
AINSWORTH      CLOUDY    45  39  80 E5        30.25S
BROKEN BOW     CLOUDY    45  37  73 E12       30.22S
O`NEILL        CLOUDY    48  36  61 E6        30.26S
ORD            CLOUDY    46  38  73 NE3       30.23S
THEDFORD       PTSUNNY   46  37  69 E5        30.22F
$$

NEZ041-046>049-061>064-073>077-083>087-212300-
SOUTH CENTRAL NEBRASKA

CITY           SKY/WX    TMP DP  RH WIND       PRES   REMARKS
GRAND ISLAND   CLOUDY    44  41  89 CALM      30.23S
AURORA         CLOUDY    45  42  88 CALM      30.22F
HASTINGS       CLOUDY    44  40  85 E10       30.22S
HEBRON         CLOUDY    48  42  79 E10       30.21R
HOLDREGE       CLOUDY    43  40  90 NE9       30.20F
KEARNEY        LGT RAIN  43  41  93 E13       30.22F
YORK             N/A     48  34  57 CALM      30.22F
$$

NEZ011>018-030>034-042>045-212300-
NORTHEAST NEBRASKA

CITY           SKY/WX    TMP DP  RH WIND       PRES   REMARKS
NORFOLK        CLOUDY    51  34  52 NE6       30.22S
ALBION         CLOUDY    49  33  54 E5        30.25S
BLAIR          CLOUDY    53  30  41 CALM      30.23F
COLUMBUS       CLOUDY    51  30  44 E8        30.24F
FREMONT        CLOUDY    53  29  39 CALM      30.25S
TEKAMAH        CLOUDY    56  27  32 E12       30.24F
WAYNE          CLOUDY    52  33  49 NE9       30.24F
$$

NEZ050>053-065>068-078-088>093-212300-
SOUTHEAST NEBRASKA

CITY           SKY/WX    TMP DP  RH WIND       PRES   REMARKS
LINCOLN        LGT RAIN  49  39  68 E7        30.24S
OMAHA EPPLEY   CLOUDY    55  31  39 CALM      30.24F
BEATRICE       CLOUDY    47  42  83 NE7       30.20S
FALLS CITY     PTSUNNY   53  41  63 N12       30.17F
NEBRASKA CITY  PTSUNNY   55  37  49 N13       30.19F
PLATTSMOUTH    CLOUDY    55  33  43 NE9       30.24R
$$

NEZ044-045-051>053-067-212300-
OMAHA AREA

CITY           SKY/WX    TMP DP  RH WIND       PRES   REMARKS
OMAHA EPPLEY   CLOUDY    55  31  39 CALM      30.24F
BLAIR          CLOUDY    53  30  41 CALM      30.23F
FREMONT        CLOUDY    53  29  39 CALM      30.25S
MILLARD        CLOUDY    55  30  39 CALM      30.24S
OFFUTT AFB     PTSUNNY   55  31  39 E3        30.23F
PLATTSMOUTH    CLOUDY    55  33  43 NE9       30.24R
WAHOO          DRIZZLE   53  28  38 NE7       30.24S
$$




USA.gov is the U.S. government's official web portal to all federal, state and local government web resources and services.